Change the Weather History Date:

Saturday, December 8, 2012

  Actual Average Record
Temperature  
Mean Temperature 36 °F -  
Max Temperature 41 °F 38 °F 50 °F (1999)
Min Temperature 32 °F 25 °F 1 °F (2005)
Degree Days  
Heating Degree Days 28    
Moisture  
Dew Point 33 °F    
Average Humidity 90    
Maximum Humidity 95    
Minimum Humidity 81    
Precipitation  
Precipitation 0.00 in - - ()
Sea Level Pressure  
Sea Level Pressure 29.96 in    
Wind  
Wind Speed 5 mph (NNE)    
Max Wind Speed 10 mph    
Max Gust Speed -    
Visibility 7 miles    
Events Rain , Snow    
Averages and records for this station are not official NWS values.
T = Trace of Precipitation, MM = Missing Value Source: NWS Daily Summary

Daily Weather History Graph

Daily Weather History Graph

Search for Another Location

Airport or City:

Trip Planner

Search our weather history database for the weather conditions in past years. The results will help you decide how hot, cold, wet, or windy it might be!

Date:

Astronomy

Dec. 08, 2012 Rise Set
Actual Time 7:53 AM EST 5:02 PM EST
Civil Twilight 7:21 AM EST 5:34 PM EST
Nautical Twilight 6:46 AM EST 6:09 PM EST
Astronomical Twilight 6:12 AM EST 6:43 PM EST
Moon 2:11 AM EST (12/8) 1:36 PM EST (12/8)
Length of Visible Light 10h 12m
Length of Day
9h 08m
Waning Crescent, 28% of the Moon is Illuminated
Dec 8
Waning Crescent
Dec 13
New
Dec 20
First Quarter
Dec 28
Full
Jan 4
Last Quarter

Hourly Weather History & Observations

Time (EST) Temp. Windchill Dew Point Humidity Pressure Visibility Wind Dir Wind Speed Gust Speed Precip Events Conditions
12:14 AM 41.4 °F 39.4 °F 39.4 °F 93% 29.88 in 1.2 mi ENE 3.5 mph - N/A   Light Drizzle
12:35 AM 41.4 °F 39.4 °F 39.4 °F 93% 29.87 in 1.5 mi ENE 3.5 mph - N/A   Overcast
12:54 AM 41.2 °F 39.2 °F 39.2 °F 93% 29.87 in 1.5 mi NE 3.5 mph - N/A   Overcast
1:14 AM 41.0 °F 38.0 °F 39.2 °F 93% 29.86 in 1.8 mi NE 4.6 mph - N/A Rain Light Rain
1:35 AM 41.0 °F 38.0 °F 38.8 °F 92% 29.85 in 1.8 mi NE 4.6 mph - N/A   Light Drizzle
1:54 AM 41.0 °F 39.0 °F 38.8 °F 92% 29.85 in 1.8 mi NNE 3.5 mph - N/A   Overcast
2:14 AM 40.6 °F 36.7 °F 38.7 °F 93% 29.85 in 1.5 mi NE 5.8 mph - N/A Rain Light Rain
2:35 AM 40.5 °F 36.5 °F 38.7 °F 93% 29.84 in 1.5 mi NE 5.8 mph - N/A Rain Light Rain
2:54 AM 40.1 °F 36.1 °F 38.1 °F 93% 29.84 in 2.0 mi NE 5.8 mph - N/A Rain Light Rain
3:15 AM 39.9 °F 35.8 °F 37.9 °F 93% 29.84 in 2.5 mi NE 5.8 mph - N/A Rain Light Rain
3:35 AM 39.7 °F 36.5 °F 37.8 °F 93% 29.84 in 2.5 mi NE 4.6 mph - N/A Rain Light Rain
3:54 AM 39.6 °F 37.4 °F 37.8 °F 93% 29.84 in 2.5 mi NE 3.5 mph - N/A Rain Rain
4:15 AM 39.2 °F 35.9 °F 37.4 °F 93% 29.83 in 3.0 mi NNE 4.6 mph - N/A Rain Light Rain
4:35 AM 39.2 °F 35.0 °F 37.0 °F 92% 29.83 in 4.0 mi NE 5.8 mph - N/A Rain Light Rain
4:54 AM 38.8 °F 34.6 °F 37.0 °F 93% 29.83 in 4.0 mi NNE 5.8 mph - N/A Rain Light Rain
5:15 AM 38.7 °F 33.6 °F 36.9 °F 93% 29.83 in 4.0 mi NNE 6.9 mph - N/A Rain Rain
5:35 AM 38.3 °F 33.2 °F 36.5 °F 93% 29.83 in 5.0 mi NNE 6.9 mph - N/A Rain Light Rain
6:15 AM 37.6 °F 31.6 °F 35.6 °F 93% 29.82 in 7.0 mi NE 8.1 mph - N/A Rain Light Rain
6:35 AM 36.9 °F 29.6 °F 34.9 °F 93% 29.83 in 10.0 mi NE 10.4 mph - N/A Rain Light Rain
6:54 AM 36.9 °F 34.3 °F 34.7 °F 92% 29.84 in 10.0 mi NE 3.5 mph - N/A Rain Light Rain
7:15 AM 36.3 °F 30.1 °F 34.2 °F 92% 29.83 in 10.0 mi NE 8.1 mph - N/A Rain Light Rain
7:34 AM 36.1 °F 31.4 °F 34.0 °F 92% 29.84 in 10.0 mi NNE 5.8 mph - N/A   Light Drizzle
7:55 AM 36.0 °F 32.1 °F 33.8 °F 92% 29.84 in 7.0 mi North 4.6 mph - N/A Rain Light Rain
8:14 AM 35.6 °F 30.7 °F 33.4 °F 92% 29.85 in 7.0 mi North 5.8 mph - N/A Rain Rain
8:34 AM 34.9 °F 30.8 °F 32.9 °F 92% 29.87 in 2.0 mi North 4.6 mph - N/A Rain Rain
8:55 AM 34.5 °F 30.4 °F 32.4 °F 92% 29.87 in 1.8 mi North 4.6 mph - N/A Rain Light Rain
9:14 AM 34.0 °F 31.0 °F 32.0 °F 92% 29.88 in 1.2 mi NNE 3.5 mph - N/A Snow Light Snow
9:34 AM 34.0 °F 28.8 °F 32.2 °F 93% 29.90 in 1.5 mi NNW 5.8 mph - N/A Snow Light Snow
9:54 AM 33.6 °F 29.4 °F 32.0 °F 94% 29.91 in 1.0 mi North 4.6 mph - N/A Snow Light Snow
10:14 AM 33.3 °F 27.1 °F 32.0 °F 95% 29.91 in 1.8 mi North 6.9 mph - N/A Snow Light Snow
10:35 AM 33.8 °F 28.6 °F 32.0 °F 93% 29.92 in 2.5 mi North 5.8 mph - N/A Snow Light Snow
10:54 AM 33.4 °F 27.3 °F 32.0 °F 94% 29.92 in 2.5 mi North 6.9 mph - N/A Snow Light Snow
11:14 AM 33.4 °F 29.1 °F 32.0 °F 94% 29.92 in 3.0 mi NNE 4.6 mph - N/A Snow Light Snow
11:35 AM 33.8 °F 28.6 °F 32.0 °F 93% 29.92 in 5.0 mi NNE 5.8 mph - N/A   Overcast
11:54 AM 34.0 °F 28.8 °F 32.0 °F 92% 29.93 in 4.0 mi North 5.8 mph - N/A Snow Light Snow
12:15 PM 34.0 °F 28.8 °F 32.0 °F 92% 29.93 in 4.0 mi North 5.8 mph - N/A   Overcast
12:35 PM 34.2 °F 28.2 °F 32.2 °F 92% 29.92 in 7.0 mi North 6.9 mph - N/A   Overcast
12:54 PM 34.3 °F 30.2 °F 32.2 °F 92% 29.91 in 5.0 mi North 4.6 mph - N/A   Overcast
1:15 PM 34.3 °F 28.4 °F 32.2 °F 92% 29.92 in 10.0 mi NNW 6.9 mph - N/A   Overcast
1:35 PM 34.7 °F 29.6 °F 32.5 °F 92% 29.93 in 10.0 mi North 5.8 mph - N/A   Overcast
1:54 PM 35.1 °F 30.1 °F 32.7 °F 91% 29.94 in 10.0 mi North 5.8 mph - N/A   Overcast
2:15 PM 35.4 °F 30.5 °F 32.9 °F 91% 29.95 in 10.0 mi North 5.8 mph - N/A   Overcast
2:35 PM 34.9 °F 29.9 °F 32.2 °F 90% 29.96 in 10.0 mi North 5.8 mph - N/A   Overcast
2:54 PM 34.7 °F 30.6 °F 32.0 °F 90% 29.97 in 10.0 mi NNW 4.6 mph - N/A   Overcast
3:34 PM 35.1 °F 30.1 °F 32.4 °F 90% 30.00 in 10.0 mi North 5.8 mph - N/A   Overcast
3:54 PM 34.2 °F 29.0 °F 31.8 °F 91% 30.00 in 10.0 mi North 5.8 mph - N/A   Overcast
4:15 PM 34.0 °F 28.8 °F 32.0 °F 92% 30.01 in 7.0 mi North 5.8 mph - N/A   Overcast
4:34 PM 33.8 °F 27.7 °F 31.1 °F 90% 30.03 in 10.0 mi North 6.9 mph - N/A   Overcast
4:54 PM 33.3 °F 28.9 °F 30.7 °F 90% 30.04 in 10.0 mi NNE 4.6 mph - N/A   Overcast
5:15 PM 33.3 °F 28.9 °F 30.7 °F 90% 30.05 in 10.0 mi North 4.6 mph - N/A   Overcast
5:34 PM 32.9 °F 27.5 °F 30.2 °F 90% 30.05 in 10.0 mi North 5.8 mph - N/A   Overcast
5:55 PM 32.9 °F 26.7 °F 30.0 °F 89% 30.06 in 10.0 mi North 6.9 mph - N/A   Overcast
6:15 PM 32.9 °F 28.5 °F 30.0 °F 89% 30.07 in 10.0 mi North 4.6 mph - N/A   Overcast
6:34 PM 32.9 °F 27.5 °F 30.0 °F 89% 30.08 in 10.0 mi North 5.8 mph - N/A   Overcast
6:55 PM 32.5 °F 28.1 °F 29.7 °F 89% 30.09 in 10.0 mi North 4.6 mph - N/A   Overcast
7:15 PM 32.5 °F 29.3 °F 29.5 °F 88% 30.10 in 10.0 mi North 3.5 mph - N/A   Overcast
7:34 PM 32.4 °F 27.9 °F 28.6 °F 86% 30.10 in 10.0 mi NE 4.6 mph - N/A   Overcast
7:55 PM 32.5 °F 28.1 °F 28.4 °F 85% 30.11 in 10.0 mi NNE 4.6 mph - N/A   Overcast
8:14 PM 32.5 °F 27.1 °F 28.4 °F 85% 30.12 in 10.0 mi NNE 5.8 mph - N/A   Overcast
8:35 PM 32.5 °F 29.3 °F 28.0 °F 83% 30.12 in 10.0 mi NNE 3.5 mph - N/A   Overcast
8:55 PM 32.5 °F 27.1 °F 28.0 °F 83% 30.12 in 10.0 mi NNE 5.8 mph - N/A   Overcast
9:14 PM 32.7 °F 28.3 °F 28.0 °F 83% 30.13 in 10.0 mi NE 4.6 mph - N/A   Overcast
9:35 PM 32.9 °F 27.5 °F 27.7 °F 81% 30.12 in 10.0 mi ENE 5.8 mph - N/A   Overcast
9:55 PM 32.7 °F 28.3 °F 27.7 °F 82% 30.12 in 10.0 mi ENE 4.6 mph - N/A   Overcast
10:14 PM 32.5 °F - 27.7 °F 82% 30.12 in 10.0 mi Calm Calm - N/A   Overcast
10:35 PM 32.4 °F - 28.0 °F 84% 30.15 in 10.0 mi Calm Calm - N/A   Overcast
10:54 PM 32.9 °F - 28.2 °F 83% 30.14 in 10.0 mi Calm Calm - N/A   Overcast
11:14 PM 32.4 °F - 28.6 °F 86% 30.15 in 10.0 mi Calm Calm - N/A   Overcast
11:35 PM 32.4 °F - 28.6 °F 86% 30.15 in 10.0 mi Calm Calm - N/A   Overcast
11:54 PM 32.5 °F - 28.9 °F 87% 30.16 in 10.0 mi Calm Calm - N/A   Overcast